Погода в Азовском

Россия / Республика Крым     45°35′07″N   34°34′01″E
темп.,
°C
ветер,
м/с
пор.,
м/с
влажн.,
%
обл.,
%
осадки,
мм/ч
давл.,
гПа
погр.,
м
29 мая, вс
вс2900:00+14зюз226625 0.0 101311
03:00+14з1166100 0.0 101310
06:00+15вюв116588 0.0 101311
09:00+21вюв34535 0.0 1013451
12:00+26вюв22404 0.0 10131438
15:00+28с133522 0.0 10132287
18:00+24всв54455 0.0 1013665
21:00+17в47610 0.0 1014115
30 мая, пн
пн3000:00+16в47554 0.0 1014113
03:00+16в495199 0.0 1014131
06:00+16вюв4955100 0.0 1013171
09:00+23вюв81247100 0.0 1012495
12:00+27вюв81042100 0.0 1012996
15:00+30юв67310 0.0 10111306
18:00+27вюв78465 0.0 1011615
21:00+19юв34735 0.0 101258
31 мая, вт
вт3100:00+18юз227160 0.0 101219
03:00+16зюз357921 0.0 101278
06:00+16зюз34870 0.0 101386
09:00+24зюз21544 0.0 1013327
12:00+30ю11350 0.0 10121158
15:00+32сз12290 0.0 10122336
18:00+27ссв44490 0.0 1012693
21:00+20з22752 0.5 101412
1 июня, ср
ср100:00+18з33820 0.3 101433
03:00+17з22810 0.3 101421
06:00+18ссз22910 0.0 101562
09:00+24ссв33660 0.0 1015543
12:00+28св32450 0.0 10151113
15:00+30св32381 0.0 10141727
18:00+29св43452 0.0 1014695
21:00+22вюв33695 0.0 101521
2 июня, чт
чт200:00+20зсз12780 0.0 101511
03:00+19зюз11798 0.0 101511
06:00+19зюз22800 0.0 101521
09:00+26ссв22520 0.0 1015495
12:00+30св44420 0.0 10151549
15:00+31св43390 0.0 10151797
18:00+30св224042 0.0 10141061
21:00+22с477052 0.0 1016138